Ruidoso, NM

1:48 AM MDT on June 29, 2017 (GMT -0600)
Sierra Blanca Regional

Weather History for KSRR - January, 2014

Change the Weather History Date:

Tuesday, January 7, 2014

  Actual Average Record
Temperature  
Mean Temperature 36 °F -  
Max Temperature 50 °F 47 °F 64 °F (2006)
Min Temperature 23 °F 28 °F 3 °F (1997)
Degree Days  
Heating Degree Days 28    
Moisture  
Dew Point 0 °F    
Average Humidity 24    
Maximum Humidity 36    
Minimum Humidity 15    
Precipitation  
Precipitation 0.00 in - - ()
Sea Level Pressure  
Sea Level Pressure 30.17 in    
Wind  
Wind Speed 8 mph (WNW)    
Max Wind Speed 14 mph    
Max Gust Speed 20 mph    
Visibility 10 miles    
Events      
Averages and records for this station are not official NWS values.
T = Trace of Precipitation, MM = Missing Value Source: NWS Daily Summary

Daily Weather History Graph

Daily Weather History Graph

Search for Another Location

Airport or City:

Trip Planner

Search our weather history database for the weather conditions in past years. The results will help you decide how hot, cold, wet, or windy it might be!

Date:

Astronomy

Jan. 07, 2014 Rise Set
Actual Time 7:06 AM MST 5:10 PM MST
Civil Twilight 6:39 AM MST 5:37 PM MST
Nautical Twilight 6:08 AM MST 6:08 PM MST
Astronomical Twilight 5:38 AM MST 6:38 PM MST
Moon 11:19 AM MST (1/7) No Moon Set
Length of Visible Light 10h 57m
Length of Day
10h 03m
Waxing Crescent, 46% of the Moon is Illuminated
Jan 7
Waxing Crescent
Jan 7
First Quarter
Jan 15
Full
Jan 23
Last Quarter
Jan 30
New

Hourly Weather History & Observations

Time (MST) Temp. Windchill Dew Point Humidity Pressure Visibility Wind Dir Wind Speed Gust Speed Precip Events Conditions
12:15 AM 26.6 °F 22.6 °F -2.2 °F 29% 30.26 in 10.0 mi West 3.5 mph - N/A   Clear
12:35 AM 28.4 °F 23.3 °F -2.2 °F 27% 30.25 in 10.0 mi WNW 4.6 mph - N/A   Clear
12:55 AM 28.4 °F 24.6 °F -2.2 °F 27% 30.25 in 10.0 mi WNW 3.5 mph - N/A   Clear
1:15 AM 28.4 °F 24.6 °F -2.2 °F 27% 30.25 in 10.0 mi West 3.5 mph - N/A   Clear
1:35 AM 24.8 °F 20.5 °F -2.2 °F 31% 30.24 in 10.0 mi West 3.5 mph - N/A   Clear
1:55 AM 26.6 °F 16.2 °F -2.2 °F 29% 30.25 in 10.0 mi West 11.5 mph - N/A   Clear
2:15 AM 26.6 °F 18.2 °F -2.2 °F 29% 30.25 in 10.0 mi West 8.1 mph - N/A   Clear
2:35 AM 23.0 °F 14.7 °F -0.4 °F 36% 30.25 in 10.0 mi WSW 6.9 mph - N/A   Clear
2:55 AM 26.6 °F 17.5 °F -2.2 °F 29% 30.25 in 10.0 mi WSW 9.2 mph - N/A   Clear
3:15 AM 28.4 °F 23.3 °F -2.2 °F 27% 30.25 in 10.0 mi West 4.6 mph - N/A   Clear
3:35 AM 26.6 °F 20.0 °F -2.2 °F 29% 30.24 in 10.0 mi West 5.8 mph - N/A   Clear
3:55 AM 28.4 °F 19.7 °F -2.2 °F 27% 30.24 in 10.0 mi West 9.2 mph - N/A   Clear
4:15 AM 26.6 °F 19.1 °F -2.2 °F 29% 30.23 in 10.0 mi West 6.9 mph - N/A   Clear
4:35 AM 26.6 °F 16.8 °F -0.4 °F 31% 30.23 in 10.0 mi WSW 10.4 mph - N/A   Clear
4:55 AM 26.6 °F 18.2 °F -0.4 °F 31% 30.23 in 10.0 mi WSW 8.1 mph - N/A   Clear
5:15 AM 24.8 °F 16.1 °F -0.4 °F 34% 30.23 in 10.0 mi West 8.1 mph - N/A   Clear
5:35 AM 24.8 °F 17.9 °F -2.2 °F 31% 30.23 in 10.0 mi West 5.8 mph - N/A   Clear
5:55 AM 24.8 °F 16.1 °F -2.2 °F 31% 30.22 in 10.0 mi West 8.1 mph - N/A   Clear
6:15 AM 28.4 °F 17.5 °F -2.2 °F 27% 30.22 in 10.0 mi West 13.8 mph 19.6 mph N/A   Clear
6:35 AM 26.6 °F 16.8 °F -2.2 °F 29% 30.22 in 10.0 mi West 10.4 mph - N/A   Clear
6:55 AM 28.4 °F 19.7 °F -2.2 °F 27% 30.22 in 10.0 mi West 9.2 mph - N/A   Clear
7:15 AM 24.8 °F 13.4 °F -0.4 °F 34% 30.21 in 10.0 mi WSW 12.7 mph - N/A   Clear
7:35 AM 26.6 °F 16.8 °F -0.4 °F 31% 30.23 in 10.0 mi WSW 10.4 mph - N/A   Clear
7:55 AM 30.2 °F 22.6 °F -0.4 °F 27% 30.22 in 10.0 mi West 8.1 mph - N/A   Clear
8:15 AM 30.2 °F 23.4 °F -0.4 °F 27% 30.23 in 10.0 mi WSW 6.9 mph - N/A   Clear
8:35 AM 32.0 °F 24.8 °F -0.4 °F 25% 30.23 in 10.0 mi West 8.1 mph - N/A   Clear
8:55 AM 33.8 °F 27.0 °F -0.4 °F 23% 30.23 in 10.0 mi WNW 8.1 mph - N/A   Clear
9:15 AM 35.6 °F 30.7 °F -0.4 °F 22% 30.24 in 10.0 mi WNW 5.8 mph - N/A   Clear
9:35 AM 35.6 °F 28.0 °F -0.4 °F 22% 30.24 in 10.0 mi West 10.4 mph - N/A   Clear
9:55 AM 37.4 °F 30.8 °F -0.4 °F 20% 30.24 in 10.0 mi WNW 9.2 mph - N/A   Clear
10:15 AM 41.0 °F 35.8 °F -0.4 °F 18% 30.23 in 10.0 mi WNW 8.1 mph - N/A   Clear
10:35 AM 42.8 °F 39.3 °F 1.4 °F 18% 30.23 in 10.0 mi NW 5.8 mph - N/A   Clear
10:55 AM 44.6 °F 42.2 °F 1.4 °F 17% 30.22 in 10.0 mi WNW 4.6 mph - N/A   Clear
11:15 AM 44.6 °F 39.7 °F 1.4 °F 17% 30.20 in 10.0 mi NW 9.2 mph - N/A   Clear
11:35 AM 46.4 °F 42.4 °F 1.4 °F 16% 30.19 in 10.0 mi WNW 8.1 mph - N/A   Clear
11:55 AM 46.4 °F 41.9 °F 1.4 °F 16% 30.17 in 10.0 mi WNW 9.2 mph - N/A   Partly Cloudy
12:15 PM 46.4 °F 44.3 °F 1.4 °F 16% 30.15 in 10.0 mi WNW 4.6 mph - N/A   Clear
12:35 PM 48.2 °F - 1.4 °F 15% 30.14 in 10.0 mi WNW 11.5 mph 16.1 mph N/A   Clear
12:55 PM 50.0 °F - 3.2 °F 15% 30.12 in 10.0 mi WNW 10.4 mph 17.3 mph N/A   Clear
1:15 PM 50.0 °F - 3.2 °F 15% 30.11 in 10.0 mi NW 11.5 mph 17.3 mph N/A   Clear
1:35 PM 48.2 °F - 3.2 °F 16% 30.11 in 10.0 mi NW 12.7 mph 17.3 mph N/A   Clear
1:55 PM 48.2 °F - 5.0 °F 17% 30.10 in 10.0 mi NW 12.7 mph 18.4 mph N/A   Clear
2:15 PM 48.2 °F - 3.2 °F 16% 30.10 in 10.0 mi NW 12.7 mph 16.1 mph N/A   Clear
2:35 PM 46.4 °F 41.1 °F 1.4 °F 16% 30.10 in 10.0 mi NW 11.5 mph 17.3 mph N/A   Clear
2:55 PM 46.4 °F 41.9 °F 1.4 °F 16% 30.10 in 10.0 mi NW 9.2 mph - N/A   Clear
3:15 PM 48.2 °F - 3.2 °F 16% 30.10 in 10.0 mi WNW 10.4 mph - N/A   Clear
3:35 PM 46.4 °F 42.4 °F 1.4 °F 16% 30.10 in 10.0 mi West 8.1 mph - N/A   Clear
3:55 PM 42.8 °F 37.5 °F 1.4 °F 18% 30.10 in 10.0 mi West 9.2 mph - N/A   Clear
4:15 PM 44.6 °F 39.2 °F 1.4 °F 17% 30.10 in 10.0 mi WNW 10.4 mph - N/A   Clear
4:35 PM 41.0 °F 34.3 °F 1.4 °F 19% 30.10 in 10.0 mi WNW 11.5 mph - N/A   Clear
4:55 PM 39.2 °F 32.0 °F 1.4 °F 21% 30.10 in 10.0 mi WNW 11.5 mph - N/A   Clear
5:15 PM 37.4 °F 28.9 °F 1.4 °F 22% 30.10 in 10.0 mi West 13.8 mph - N/A   Clear
5:35 PM 35.6 °F 27.5 °F -0.4 °F 22% 30.10 in 10.0 mi West 11.5 mph - N/A   Clear
5:55 PM 32.0 °F 23.0 °F -0.4 °F 25% 30.10 in 10.0 mi West 11.5 mph - N/A   Clear
6:15 PM 32.0 °F 22.5 °F -0.4 °F 25% 30.10 in 10.0 mi West 12.7 mph - N/A   Clear
6:35 PM 32.0 °F 22.5 °F -0.4 °F 25% 30.09 in 10.0 mi West 12.7 mph - N/A   Clear
6:55 PM 32.0 °F 23.0 °F 1.4 °F 27% 30.10 in 10.0 mi West 11.5 mph - N/A   Clear
7:15 PM 32.0 °F 24.2 °F 1.4 °F 27% 30.10 in 10.0 mi West 9.2 mph - N/A   Clear
7:35 PM 32.0 °F 23.0 °F 1.4 °F 27% 30.10 in 10.0 mi West 11.5 mph - N/A   Clear
7:55 PM 32.0 °F 23.0 °F 1.4 °F 27% 30.10 in 10.0 mi West 11.5 mph - N/A   Clear
8:15 PM 32.0 °F 23.6 °F 1.4 °F 27% 30.09 in 10.0 mi West 10.4 mph - N/A   Clear
8:35 PM 32.0 °F 25.6 °F 1.4 °F 27% 30.10 in 10.0 mi WNW 6.9 mph - N/A   Clear
8:55 PM 32.0 °F 25.6 °F 1.4 °F 27% 30.10 in 10.0 mi WNW 6.9 mph - N/A   Clear
9:15 PM 32.0 °F 24.8 °F 1.4 °F 27% 30.10 in 10.0 mi NNW 8.1 mph - N/A   Clear
9:35 PM 32.0 °F 25.6 °F 1.4 °F 27% 30.10 in 10.0 mi WNW 6.9 mph - N/A   Clear
9:55 PM 32.0 °F 25.6 °F 1.4 °F 27% 30.10 in 10.0 mi WNW 6.9 mph - N/A   Clear
10:15 PM 32.0 °F 26.4 °F 1.4 °F 27% 30.10 in 10.0 mi NW 5.8 mph - N/A   Clear
10:35 PM 28.4 °F 22.2 °F 1.4 °F 31% 30.09 in 10.0 mi WSW 5.8 mph - N/A   Clear
10:55 PM 28.4 °F 19.7 °F 1.4 °F 31% 30.08 in 10.0 mi NNE 9.2 mph - N/A   Clear
11:15 PM 28.4 °F 21.2 °F 1.4 °F 31% 30.08 in 10.0 mi NNW 6.9 mph - N/A   Clear
11:35 PM 32.0 °F 24.2 °F 1.4 °F 27% 30.07 in 10.0 mi NW 9.2 mph - N/A   Clear
11:55 PM 32.0 °F 24.8 °F 1.4 °F 27% 30.06 in 10.0 mi NW 8.1 mph - N/A   Clear